Date String (YYYY-MM-DD hh:mm:ss) UTC,Instrument flags,Ambient pressure (hPa),Sample flow (lpm),Bypass flow (lpm),Sample temperature (°C),Ambient temperature (°C),ASC tube jacket temperature (°C),LED temperature (°C),Box temperature (°C),Sample RH (%),Span deviation,Mass concentration (μg/m³),Mass concentration (μg/m³),Mass concentration (μg/m³)
DateTimeUTC,F1_M11,P_M11,Q1_M11,Q2_M11,T1_M11,T2_M11,T3_M11,T4_M11,T5_M11,U1_M11,ZSPAN_M11,X0_M11,X2_M11,X1_M11
2022-11-10 00:00:00,,0812.2,5.01,0.00,25.8,24.4,00.0,34.5,27.7,14.7,-000.7,0026.62,0011.87,0010.00
2022-11-10 00:01:00,,0812.2,5.01,0.00,25.8,24.4,00.0,34.5,27.7,14.7,-000.4,0026.40,0011.90,0010.01
2022-11-10 00:02:00,,0812.1,5.00,0.00,25.8,24.4,00.0,34.5,27.7,14.7,-000.7,0024.61,0011.83,0010.01
2022-11-10 00:03:00,,0812.1,5.00,0.00,25.8,24.4,00.0,34.5,27.7,14.7,-000.7,0024.81,0011.88,0010.03
2022-11-10 00:04:00,,0812.2,4.99,0.00,25.8,24.3,00.0,34.5,27.7,14.7,-000.7,0025.02,0011.84,0010.05
2022-11-10 00:05:00,,0812.2,4.99,0.00,25.8,24.3,00.0,34.5,27.7,14.7,-001.3,0024.62,0011.90,0010.06
2022-11-10 00:06:00,,0812.2,5.01,0.00,25.8,24.4,00.0,34.5,27.7,14.7,-001.6,0023.85,0011.95,0010.08
2022-11-10 00:07:00,,0812.1,5.01,0.00,25.8,24.3,00.0,34.5,27.7,14.7,-001.6,0023.94,0011.99,0010.10
2022-11-10 00:08:00,,0812.2,4.98,0.00,25.8,24.3,00.0,34.5,27.7,14.7,-001.2,0023.69,0012.01,0010.11
2022-11-10 00:09:00,,0812.4,5.00,0.00,25.8,24.3,00.0,34.5,27.7,14.7,-001.1,0022.99,0011.99,0010.13
2022-11-10 00:10:00,,0812.4,5.01,0.00,25.8,24.3,00.0,34.5,27.6,14.7,-001.2,0024.10,0011.97,0010.15
2022-11-10 00:11:00,,0812.3,5.01,0.00,25.8,24.3,00.0,34.5,27.6,14.7,-000.8,0024.25,0011.96,0010.18
2022-11-10 00:12:00,,0812.1,4.99,0.00,25.8,24.3,00.0,34.5,27.7,14.7,-000.8,0025.42,0011.96,0010.19
2022-11-10 00:13:00,,0812.0,4.98,0.00,25.8,24.3,00.0,34.5,27.7,14.7,-000.8,0026.20,0011.96,0010.19
2022-11-10 00:14:00,,0812.1,5.03,0.00,25.7,24.2,00.0,34.5,27.6,14.7,-000.6,0027.13,0011.96,0010.21
2022-11-10 00:15:00,,0812.3,5.00,0.00,25.7,24.2,00.0,34.5,27.6,14.7,-000.4,0027.39,0012.05,0010.21
2022-11-10 00:16:00,,0812.4,4.99,0.00,25.7,24.2,00.0,34.5,27.6,14.7,-000.6,0027.29,0012.00,0010.22
2022-11-10 00:17:00,,0812.3,4.99,0.00,25.7,24.2,00.0,34.5,27.6,14.7,-000.5,0027.85,0012.03,0010.23
2022-11-10 00:18:00,,0812.1,4.99,0.00,25.7,24.2,00.0,34.5,27.6,14.7,-000.4,0027.73,0012.04,0010.23
2022-11-10 00:19:00,,0812.2,5.02,0.00,25.7,24.2,00.0,34.5,27.6,14.7,-000.5,0028.92,0012.07,0010.25
2022-11-10 00:20:00,,0812.3,5.00,0.00,25.7,24.3,00.0,34.6,27.6,14.7,-000.7,0029.25,0012.16,0010.27
2022-11-10 00:21:00,,0812.4,4.99,0.00,25.7,24.3,00.0,34.6,27.6,14.7,-000.7,0029.13,0012.22,0010.29
2022-11-10 00:22:00,,0812.4,5.00,0.00,25.7,24.3,00.0,34.5,27.6,14.7,-000.8,0028.13,0012.27,0010.33
2022-11-10 00:23:00,,0812.3,5.02,0.00,25.7,24.3,00.0,34.5,27.6,14.7,-000.8,0028.21,0012.33,0010.36
2022-11-10 00:24:00,,0812.2,5.00,0.00,25.7,24.3,00.0,34.5,27.6,14.7,-000.9,0028.81,0012.43,0010.43
2022-11-10 00:25:00,,0812.2,4.98,0.00,25.7,24.3,00.0,34.5,27.6,14.7,-000.7,0028.83,0012.46,0010.47
2022-11-10 00:26:00,,0812.2,5.01,0.00,25.7,24.3,00.0,34.5,27.6,14.7,-000.6,0028.41,0012.42,0010.51
2022-11-10 00:27:00,,0812.3,5.01,0.00,25.7,24.3,00.0,34.5,27.6,14.7,-000.2,0028.83,0012.50,0010.55
2022-11-10 00:28:00,,0812.4,4.99,0.00,25.7,24.2,00.0,34.5,27.6,14.7,0000.1,0029.40,0012.54,0010.61
2022-11-10 00:29:00,,0812.5,5.00,0.00,25.7,24.3,00.0,34.5,27.6,14.7,0000.1,0029.21,0012.55,0010.67
2022-11-10 00:30:00,,0812.5,5.02,0.00,25.7,24.2,00.0,34.5,27.6,14.7,0000.1,0028.33,0012.52,0010.69
2022-11-10 00:31:00,,0812.5,5.00,0.00,25.7,24.3,00.0,34.5,27.6,14.7,0000.2,0028.95,0012.57,0010.72
2022-11-10 00:32:00,,0812.5,4.99,0.00,25.7,24.3,00.0,34.5,27.6,14.7,-000.1,0029.28,0012.61,0010.75
2022-11-10 00:33:00,,0812.5,4.99,0.00,25.7,24.2,00.0,34.5,27.6,14.7,-000.1,0028.96,0012.66,0010.77
2022-11-10 00:34:00,,0812.6,5.01,0.00,25.7,24.3,00.0,34.5,27.6,14.7,-000.4,0028.54,0012.69,0010.80
2022-11-10 00:35:00,,0812.7,5.01,0.00,25.7,24.3,00.0,34.5,27.6,14.7,-000.4,0027.31,0012.77,0010.82
2022-11-10 00:36:00,,0812.6,5.00,0.00,25.7,24.3,00.0,34.5,27.6,14.7,-000.2,0026.57,0012.82,0010.86
2022-11-10 00:37:00,,0812.6,4.99,0.00,25.7,24.3,00.0,34.5,27.6,14.7,-000.1,0029.13,0012.87,0010.88
2022-11-10 00:38:00,,0812.7,5.00,0.00,25.7,24.2,00.0,34.5,27.6,14.7,-000.2,0030.23,0012.92,0010.90
2022-11-10 00:39:00,,0812.8,5.00,0.00,25.7,24.2,00.0,34.5,27.6,14.7,-000.2,0029.52,0012.93,0010.90
2022-11-10 00:40:00,,0812.7,5.00,0.00,25.7,24.2,00.0,34.5,27.6,14.7,-000.3,0030.41,0012.99,0010.93
2022-11-10 00:41:00,,0812.7,5.00,0.00,25.7,24.2,00.0,34.5,27.6,14.7,-000.5,0031.38,0013.04,0010.95
2022-11-10 00:42:00,,0812.7,5.00,0.00,25.7,24.2,00.0,34.5,27.6,14.7,-000.4,0031.28,0013.03,0010.96
2022-11-10 00:43:00,,0812.8,5.00,0.00,25.7,24.2,00.0,34.5,27.6,14.7,-000.5,0030.49,0013.01,0010.98
2022-11-10 00:44:00,,0813.0,5.00,0.00,25.7,24.2,00.0,34.5,27.6,14.7,-000.5,0030.51,0013.03,0011.02
2022-11-10 00:45:00,,0813.1,5.00,0.00,25.7,24.2,00.0,34.5,27.6,14.7,-000.4,0029.83,0013.04,0011.03
2022-11-10 00:46:00,,0813.0,5.00,0.00,25.7,24.2,00.0,34.5,27.6,14.7,-000.4,0030.03,0013.05,0011.05
2022-11-10 00:47:00,,0812.9,5.00,0.00,25.7,24.2,00.0,34.5,27.6,14.7,-000.8,0029.91,0013.06,0011.06
2022-11-10 00:48:00,,0812.9,5.00,0.00,25.7,24.2,00.0,34.5,27.6,14.7,-000.9,0027.17,0013.03,0011.09
2022-11-10 00:49:00,,0812.9,5.01,0.00,25.7,24.2,00.0,34.5,27.6,14.7,-000.9,0026.81,0013.03,0011.10
2022-11-10 00:50:00,,0813.0,5.00,0.00,25.7,24.2,00.0,34.5,27.6,14.7,-001.0,0027.13,0013.07,0011.13
2022-11-10 00:51:00,,0813.1,4.99,0.00,25.7,24.2,00.0,34.4,27.6,14.7,-001.0,0027.09,0013.08,0011.14
2022-11-10 00:52:00,,0813.1,5.00,0.00,25.7,24.2,00.0,34.4,27.6,14.7,-001.1,0026.93,0013.07,0011.14
2022-11-10 00:53:00,,0813.1,5.01,0.00,25.7,24.2,00.0,34.4,27.6,14.7,-001.2,0027.01,0013.00,0011.11
2022-11-10 00:54:00,,0813.2,5.02,0.00,25.7,24.2,00.0,34.4,27.6,14.7,-001.2,0026.63,0012.98,0011.08
2022-11-10 00:55:00,,0813.3,4.99,0.00,25.7,24.2,00.0,34.4,27.6,14.6,-001.0,0026.08,0012.94,0011.04
2022-11-10 00:56:00,,0813.3,5.00,0.00,25.7,24.2,00.0,34.4,27.6,14.6,-001.1,0026.43,0012.91,0010.99
2022-11-10 00:57:00,,0813.3,5.02,0.00,25.7,24.2,00.0,34.4,27.6,14.6,-001.0,0027.98,0012.82,0010.94
2022-11-10 00:58:00,,0813.5,4.98,0.00,25.7,24.2,00.0,34.4,27.6,14.6,-000.8,0029.65,0012.75,0010.89
2022-11-10 00:59:00,,0813.5,4.99,0.00,25.7,24.2,00.0,34.4,27.6,14.5,-001.1,0030.83,0012.75,0010.82
